GFSGBSN_2pvu_pres_045.txt.gz
Presure
189 193 192 193 194 207 194 204 189 195 200 195 193 184 189 187 194 183 194 203 191 192 188 194 194 197 149 196 204 200 204 223 207 238 275 230 278 406 273 256 256 265 261 257 241 245 195
204 183 213 187 189 188 194 203 206 192 197 193 187 192 199 188 192 190 195 193 198 181 174 186 188 88 181 192 172 197 204 215 209 230 280 226 317 327 280 253 251 270 260 247 244 203 167
183 187 193 214 189 190 180 194 181 192 197 196 191 183 192 185 186 188 196 191 200 185 188 191 188 191 193 187 180 205 201 217 208 225 299 229 385 313 278 248 247 251 236 125 201 141 140
181 166 209 162 191 191 182 185 199 182 199 187 196 189 182 183 179 195 193 192 184 186 188 193 174 191 196 182 168 187 201 215 204 227 287 228 377 297 246 249 247 246 246 228 235 238 243
179 205 183 198 159 177 162 185 174 195 183 192 182 193 192 191 192 199 191 183 196 191 184 192 179 183 161 182 190 198 208 212 205 236 329 270 317 264 251 242 239 237 137 231 234 236 245
213 174 208 180 210 190 213 168 193 182 205 179 188 192 186 188 205 193 180 185 184 186 182 174 192 173 164 191 197 191 200 220 200 234 248 246 315 238 249 239 242 237 235 213 215 237 230
158 197 232 174 161 174 198 202 173 176 197 186 178 177 185 165 189 190 190 192 187 185 155 189 185 172 177 155 167 202 196 213 201 252 255 227 231 234 260 240 233 107 224 138 188 117 232
237 228 220 223 200 201 169 168 185 194 182 187 192 203 182 185 186 171 183 183 185 157 178 190 184 184 185 173 174 193 218 211 192 249 249 238 251 238 228 255 244 228 234 232 153 147 206
216 220 235 232 218 240 206 190 162 174 189 177 184 192 184 180 187 183 179 181 183 183 194 184 111 176 193 177 175 197 210 216 206 235 256 232 251 248 244 245 235 232 226 227 239 225 225
247 243 245 253 249 254 212 170 166 204 196 169 183 171 182 169 171 184 182 191 182 182 182 186 168 196 160 190 200 195 201 209 180 229 246 220 222 275 231 256 241 234 229 226 228 222 220
262 253 255 247 247 244 203 237 198 190 173 192 184 179 184 176 173 187 183 187 180 167 186 174 165 172 176 187 204 200 194 213 192 222 239 217 225 242 240 246 242 225 232 219 217 221 222
268 261 259 249 252 247 243 234 228 206 209 176 175 184 178 176 176 176 183 186 144 161 182 190 187 182 150 168 187 150 185 184 189 213 228 266 219 246 252 246 241 225 221 227 215 222 224
255 259 244 257 236 255 234 234 218 226 203 158 172 178 174 179 193 185 186 176 178 185 180 184 189 186 199 201 198 182 191 184 182 205 223 242 211 236 238 231 233 243 226 228 222 214 215
300 278 262 254 243 241 244 244 226 205 218 187 209 186 166 194 195 183 194 189 190 179 183 190 195 175 154 208 178 186 195 208 179 197 215 246 211 227 241 238 247 242 234 222 227 213 226
321 308 293 278 264 263 242 231 243 231 223 196 209 190 202 192 158 194 184 187 185 175 179 190 176 174 195 198 207 193 166 167 178 219 213 234 233 203 222 229 235 236 222 227 230 226 223
410 353 309 299 281 266 254 245 230 238 235 227 222 207 206 212 191 195 202 183 167 172 161 197 191 149 197 204 195 185 170 181 185 196 211 235 240 250 229 218 240 235 232 237 232 225 206
397 438 413 313 301 272 259 246 249 244 243 229 205 226 146 188 171 208 178 168 174 179 182 199 170 190 187 196 179 208 150 180 170 191 224 229 244 269 237 214 228 233 239 218 220 221 225
339 361 424 373 318 303 287 263 245 245 244 243 215 207 218 227 189 185 196 177 180 193 181 183 200 204 187 200 174 194 183 196 165 203 220 221 243 248 221 216 217 228 224 218 205 215 219
323 324 354 422 471 320 302 258 248 243 253 248 238 147 222 215 223 192 160 193 195 192 203 204 183 189 202 199 177 209 208 202 179 169 222 212 235 230 271 268 218 205 218 214 220 233 227
322 319 326 353 431 472 324 296 255 251 242 229 247 235 188 152 183 198 184 194 168 185 173 180 195 182 192 205 200 193 189 197 208 201 222 202 232 227 278 243 253 215 213 211 211 218 219
325 317 323 340 355 428 395 330 300 264 253 241 245 246 238 229 226 192 216 186 179 175 177 188 183 156 188 200 204 203 207 201 204 201 215 203 224 232 288 234 248 250 235 218 214 215 206
330 313 319 321 350 400 431 344 327 294 261 249 255 255 234 112 142 221 217 183 179 148 177 200 204 198 189 194 198 194 197 196 196 195 218 207 222 238 277 271 266 214 258 211 207 211 210
333 322 318 309 336 381 397 426 373 323 290 265 261 252 246 242 165 181 212 215 202 179 135 191 193 191 191 199 192 207 203 211 217 214 221 228 214 239 262 259 257 199 223 216 215 213 208
327 320 318 313 310 333 360 398 429 304 265 299 274 259 260 240 245 178 225 205 131 159 194 206 189 196 206 208 202 201 195 213 209 192 194 221 217 237 191 247 224 214 221 222 218 205 219
320 322 308 307 316 327 345 351 391 464 294 341 277 265 266 256 251 232 233 222 209 204 167 211 205 202 202 206 203 209 206 207 212 211 223 220 220 235 266 247 220 210 217 213 214 212 214
331 318 308 313 314 179 323 338 336 407 476 319 158 267 261 252 258 128 231 231 153 177 176 208 210 202 194 199 206 212 210 208 207 218 219 225 213 238 269 243 211 220 211 215 216 211 215
320 310 309 317 313 315 320 331 368 365 387 373 185 340 253 256 208 250 243 141 159 210 214 207 208 202 211 201 207 214 211 209 213 221 224 205 223 244 264 244 214 213 213 206 211 214 216
316 306 317 314 308 315 320 329 344 383 413 290 302 253 322 260 251 208 258 83 138 188 215 225 213 209 207 200 217 213 199 212 211 220 203 205 215 248 252 243 223 212 211 211 208 214 216
312 314 313 317 321 325 329 322 363 390 425 170 373 292 321 308 262 260 257 247 237 237 211 221 221 215 210 215 218 207 212 214 212 195 203 217 223 235 246 205 231 222 210 209 208 207 211

GFSGBSN_2pvu_pres_048.txt.gz
Presure
171 192 185 206 193 185 195 220 185 196 197 192 200 202 201 196 190 199 198 190 195 192 191 189 189 203 195 193 197 162 197 180 187 203 208 230 274 240 422 282 280 260 172 278 261 119 162
191 179 189 202 174 204 184 192 186 191 211 194 192 194 205 204 193 192 199 202 192 180 187 188 189 192 196 195 185 186 120 201 186 204 218 228 290 349 405 280 272 254 256 260 237 249 242
152 167 180 157 163 186 175 187 181 187 203 201 180 188 191 202 185 202 190 196 187 193 188 176 191 197 198 200 181 188 189 189 177 202 217 229 279 364 307 272 255 248 253 243 249 249 160
187 157 175 215 186 198 184 157 160 151 174 201 203 192 188 194 187 191 193 194 200 186 184 183 190 199 197 184 181 183 190 181 180 193 222 231 327 356 244 261 253 240 254 249 250 233 231
164 174 133 171 184 164 185 190 199 175 176 187 174 170 197 200 196 195 187 180 184 190 191 187 200 198 184 179 188 188 178 192 187 192 212 231 272 224 249 268 248 238 242 239 237 233 218
201 193 160 196 188 188 187 153 163 212 196 206 193 188 184 181 184 175 194 185 193 184 181 196 197 182 191 187 183 190 180 185 193 208 195 226 246 238 247 255 243 239 237 235 227 228 236
163 194 181 207 154 157 212 205 175 166 172 159 212 196 186 199 162 184 159 198 176 184 169 193 189 196 192 190 187 181 191 196 171 208 219 219 240 222 251 257 244 236 235 233 227 228 233
204 210 213 219 219 216 187 214 210 223 200 214 215 181 192 159 183 190 196 181 190 177 195 197 174 185 184 191 197 193 189 196 180 203 188 212 237 246 270 249 254 237 234 242 236 227 223
227 222 217 223 215 207 216 210 191 215 223 194 239 195 178 201 178 171 175 193 201 203 188 181 185 174 185 183 176 170 181 164 186 204 186 207 228 336 219 251 250 234 228 228 232 229 138
207 216 211 204 202 198 203 222 234 237 228 222 240 205 180 171 172 188 170 186 194 192 190 176 184 180 187 187 175 164 192 189 191 201 204 203 220 267 224 244 251 217 227 228 225 234 121
251 240 240 225 228 224 225 231 234 246 239 222 238 251 192 156 201 175 190 183 194 191 192 182 179 182 196 181 190 186 196 192 202 189 204 195 224 245 214 243 247 233 201 227 225 229 204
285 278 253 237 257 228 235 248 257 242 232 233 242 246 210 200 188 200 189 191 185 189 186 185 184 186 195 181 173 181 160 187 181 209 180 196 221 237 246 239 251 242 226 215 227 218 215
313 297 294 286 275 261 254 255 245 231 238 242 238 240 244 194 203 180 196 178 179 185 188 187 179 185 182 187 186 181 188 197 199 202 190 193 210 227 337 213 224 259 239 224 221 222 209
358 366 281 301 287 278 267 264 258 246 255 250 237 247 238 171 217 166 198 182 168 187 175 192 191 187 190 181 191 194 184 195 197 199 175 200 213 218 244 207 230 243 242 237 219 227 222
353 377 415 403 318 293 278 268 258 255 249 256 237 253 238 220 227 212 199 154 171 188 192 187 184 187 195 191 192 184 157 194 186 200 187 184 199 222 231 324 227 220 237 236 230 218 230
332 329 355 390 402 321 292 277 268 249 246 247 244 253 237 229 230 221 167 193 193 181 155 188 186 194 191 187 187 189 158 185 186 202 204 191 205 220 221 274 252 213 231 242 233 228 227
311 298 328 340 377 512 335 293 277 263 247 241 251 249 243 229 236 231 213 202 188 193 183 188 192 196 176 193 177 187 187 175 198 192 198 187 177 222 209 231 299 220 221 233 236 236 230
324 310 289 325 343 389 531 334 291 276 260 254 238 248 251 232 240 234 208 207 196 185 189 198 177 185 176 200 176 182 195 199 190 198 207 192 165 209 226 215 279 268 223 216 240 218 213
345 326 315 316 323 336 424 531 316 282 273 257 246 255 237 239 238 217 189 212 196 201 203 188 199 199 186 167 197 165 185 170 188 191 206 194 210 173 221 215 235 294 248 219 224 232 215
394 327 321 317 307 319 335 456 419 298 281 272 263 248 170 138 253 230 215 212 195 196 197 190 188 192 205 196 188 190 179 205 183 202 194 184 204 208 226 224 227 293 266 247 213 211 218
481 380 317 318 309 311 321 352 520 339 294 279 271 265 119 252 186 248 232 218 181 212 210 207 203 192 197 171 188 173 195 182 203 206 188 198 208 210 208 222 225 254 277 260 215 237 219
466 450 324 328 318 309 312 332 385 521 332 291 284 270 265 104 101 98 241 170 206 218 209 199 203 158 196 198 202 207 195 205 205 206 202 208 202 215 217 207 230 241 269 262 258 215 251
442 405 344 319 307 310 317 318 340 456 394 314 292 275 273 246 198 200 249 224 209 213 174 207 200 197 200 196 198 202 208 189 178 206 205 215 203 214 174 224 229 235 266 257 254 200 251
424 411 341 310 315 308 310 317 323 372 522 404 310 285 278 179 205 194 240 237 209 198 210 166 141 197 207 201 178 201 200 209 196 206 203 205 210 199 207 218 226 216 259 252 228 207 206
421 385 332 310 313 314 307 310 322 405 450 509 381 304 281 273 242 246 153 235 151 206 129 211 201 188 185 191 196 200 198 206 207 206 206 207 210 215 180 224 203 215 267 263 219 221 217
400 349 321 312 315 305 308 306 328 389 398 461 372 312 295 277 250 241 239 238 211 215 209 129 204 209 207 215 197 185 184 196 203 206 194 207 205 212 216 226 224 205 263 258 231 205 224
364 344 324 312 314 308 299 307 320 358 384 410 447 387 305 296 253 241 235 237 216 122 217 220 201 209 214 220 209 208 211 188 205 202 206 209 206 213 215 193 216 221 225 260 237 226 211
353 337 323 310 310 304 303 309 311 325 357 391 540 387 327 303 284 243 190 232 229 228 175 200 203 211 215 172 192 206 205 196 195 197 197 208 209 212 214 211 208 219 232 254 243 229 216
335 324 310 308 300 305 303 300 312 324 339 357 420 470 383 306 310 268 247 242 218 218 142 136 228 176 201 155 211 200 203 200 197 196 205 207 197 208 197 220 218 210 222 240 247 231 230

GFSGBSN_2pvu_pres_051.txt.gz
Presure
226 189 185 204 165 179 196 208 189 208 180 204 189 201 189 190 206 210 198 191 210 198 195 189 182 192 200 193 193 181 192 197 198 194 130 182 201 211 279 257 294 290 254 268 258 276 260
144 159 176 168 195 184 157 162 177 173 195 159 214 174 218 192 182 198 204 199 190 195 200 199 196 192 187 195 193 190 194 201 142 195 191 198 186 216 264 276 296 260 258 256 261 241 243
144 194 198 186 184 183 199 182 174 184 185 193 162 181 202 199 184 179 206 201 193 172 199 186 202 198 192 198 188 189 202 203 188 185 201 201 209 209 244 272 276 255 253 263 251 252 237
161 165 153 176 156 155 207 157 195 156 159 159 184 184 177 174 200 177 192 196 200 193 186 195 191 202 172 194 196 192 193 188 189 192 193 197 184 207 231 238 263 252 251 256 252 254 232
184 185 163 195 170 176 156 182 174 187 177 199 167 174 197 192 195 194 174 187 182 179 207 201 195 188 193 191 189 195 186 197 199 175 202 174 208 201 228 236 259 253 243 231 235 237 238
189 200 196 196 188 180 181 182 183 184 148 164 164 176 196 162 177 202 181 179 152 185 190 183 182 193 192 198 175 190 182 183 190 189 196 178 205 198 219 241 253 246 239 233 222 225 229
201 205 202 182 196 198 193 197 193 148 189 192 162 162 157 196 170 178 205 202 166 191 172 204 190 163 185 186 183 195 183 192 182 187 177 201 192 198 214 246 256 243 236 237 238 227 224
210 206 212 208 200 211 174 205 195 191 204 203 198 204 194 215 163 221 174 174 205 200 185 194 174 184 186 180 178 191 183 186 177 193 170 197 203 189 209 299 240 253 226 230 241 234 227
213 210 201 214 223 220 221 222 210 192 215 213 202 173 211 215 161 210 195 234 207 193 184 177 201 190 187 201 199 185 187 180 185 197 179 193 199 194 208 281 216 252 198 225 229 233 226
214 226 211 213 208 210 202 219 210 184 211 209 198 213 211 190 212 220 152 209 208 209 191 173 198 188 188 190 188 178 183 178 198 189 187 200 193 186 200 225 230 258 243 229 226 225 228
221 232 215 217 215 214 202 211 213 216 201 191 217 221 213 205 210 192 232 237 227 195 200 196 180 190 178 190 192 181 172 190 177 194 161 199 192 183 197 217 261 238 254 237 224 224 231
243 246 248 250 241 235 244 214 242 212 214 211 229 202 212 208 213 203 239 233 216 196 177 183 189 196 190 183 192 183 190 184 196 193 184 180 197 178 190 212 248 214 235 242 223 227 220
293 297 294 277 277 269 272 262 243 249 242 214 213 216 217 232 230 241 239 226 222 228 204 192 190 189 191 195 197 194 181 184 192 195 195 174 188 193 191 201 230 258 222 235 231 216 219
366 360 372 367 325 322 302 286 274 269 265 244 231 238 237 219 224 214 241 237 228 240 205 188 194 184 185 190 185 185 195 194 192 187 196 171 198 194 186 192 218 301 243 227 246 237 217
326 334 339 350 356 359 316 290 300 288 275 265 252 249 244 230 237 243 241 249 244 233 200 187 188 189 179 186 191 180 185 185 193 187 193 166 193 190 197 214 209 234 250 221 219 243 230
313 306 302 304 298 324 339 346 413 298 289 275 262 256 251 246 239 243 246 253 240 225 209 195 194 190 192 193 176 196 187 188 181 190 178 194 206 200 189 182 212 220 279 230 225 239 225
294 320 333 318 309 305 303 320 347 513 383 268 278 264 254 249 241 253 253 248 233 226 218 205 199 197 189 195 183 188 193 197 184 198 187 198 189 183 196 169 208 213 227 254 214 230 229
301 307 308 344 320 317 300 299 306 352 428 400 271 282 262 258 251 263 246 247 231 223 194 203 200 199 194 194 194 179 186 197 200 187 181 189 192 198 203 188 188 223 239 237 248 213 216
411 433 438 458 436 318 309 297 298 313 449 403 388 295 245 263 267 207 251 247 230 222 216 216 143 198 197 196 189 193 196 174 196 194 196 198 186 199 215 200 205 184 224 230 266 233 223
453 426 403 413 436 349 310 303 301 291 318 494 386 352 285 191 203 217 250 245 235 223 213 219 204 167 199 198 193 197 187 199 199 185 195 180 194 199 200 185 209 175 211 224 251 255 234
399 398 395 398 416 406 306 298 297 298 312 355 399 372 288 287 274 194 247 246 241 224 217 218 214 205 197 196 193 193 190 184 196 206 159 174 195 180 205 199 210 214 225 224 232 274 255
383 381 374 385 412 446 329 300 308 288 300 316 478 379 344 290 264 195 238 240 238 149 222 217 217 211 197 198 191 192 194 187 200 202 195 202 194 220 203 196 208 184 180 228 224 278 269
392 383 383 392 417 406 346 318 307 294 303 323 566 386 368 293 139 105 208 203 215 218 216 209 209 211 206 206 199 198 199 198 186 201 198 201 191 204 207 192 206 228 211 227 203 240 255
527 402 382 400 450 389 333 318 306 292 304 320 281 400 370 85 191 142 90 236 238 221 219 213 211 209 202 205 187 198 192 203 208 199 201 202 201 196 211 208 195 221 224 220 217 220 258
435 431 414 408 419 377 325 310 306 303 306 307 346 471 371 351 301 193 87 89 151 226 223 171 217 212 204 210 210 207 209 208 211 209 206 187 178 208 204 200 200 212 218 205 212 216 239
423 413 426 444 400 344 321 292 295 306 298 306 328 490 383 353 307 276 241 230 132 224 207 225 219 213 136 211 208 211 218 207 206 173 209 164 200 201 187 207 209 205 216 220 230 213 232
422 452 420 395 362 326 313 302 298 302 303 303 320 357 554 368 330 287 254 240 229 231 215 231 225 143 220 215 204 220 214 204 166 177 164 202 205 206 200 203 204 208 209 201 190 223 214
413 393 379 361 334 314 299 293 293 294 303 310 330 381 556 388 336 294 268 243 225 229 202 233 222 231 134 214 214 208 200 211 201 199 201 202 196 209 216 202 201 209 209 198 201 224 219
372 354 344 334 315 306 298 292 299 296 306 322 384 400 459 562 344 316 281 257 240 232 141 140 232 232 226 217 209 187 203 205 194 202 203 199 215 214 213 201 200 199 207 215 216 226 208

GFSGBSN_2pvu_pres_054.txt.gz
Presure
174 203 163 193 181 186 197 211 182 183 170 214 204 190 210 202 192 194 195 222 205 191 190 217 209 158 193 212 203 205 205 206 203 203 207 200 206 199 189 202 229 279 267 265 284 273 276
212 195 184 181 181 215 189 217 190 167 174 205 180 197 169 165 188 177 173 191 195 175 184 204 214 205 203 194 192 185 204 202 198 189 197 201 197 208 185 201 228 267 267 267 262 265 266
204 198 205 201 183 213 191 173 176 161 188 174 182 168 182 188 212 204 188 184 162 187 184 184 185 198 204 191 193 193 196 198 197 192 192 190 190 191 195 199 222 262 268 273 251 249 240
201 197 188 183 207 213 188 197 169 182 179 191 209 190 178 162 178 175 172 152 191 196 191 178 180 170 186 206 207 190 205 196 198 180 193 196 193 205 200 200 213 240 253 265 247 241 243
174 198 188 172 213 192 195 176 191 178 164 199 176 197 204 195 188 155 168 201 176 187 206 183 205 187 180 189 188 194 180 198 189 188 193 193 197 184 179 195 215 266 253 246 240 241 240
210 200 187 183 177 193 179 185 194 199 187 178 174 178 166 170 190 177 196 160 178 194 200 154 167 147 171 173 206 188 198 181 183 192 190 190 195 183 197 193 219 274 254 247 235 236 227
194 193 199 168 199 166 173 187 177 180 173 170 178 167 149 184 152 171 162 184 178 168 161 201 177 211 160 211 195 185 185 195 183 184 189 183 203 200 174 194 205 252 220 236 242 240 222
213 215 210 165 203 203 187 191 172 202 201 191 161 192 185 135 185 179 190 190 172 184 169 201 159 177 219 202 195 194 188 190 207 195 179 190 201 204 177 192 199 222 243 238 239 248 239
214 212 215 172 219 207 190 203 213 219 215 203 165 195 200 189 165 175 182 193 197 207 202 216 195 173 220 207 203 178 178 200 192 184 182 189 186 201 186 185 195 222 271 221 244 237 229
222 207 222 224 219 199 214 216 212 212 206 213 208 179 192 173 188 178 149 183 163 203 190 176 212 188 216 204 194 197 190 172 189 189 189 175 198 175 190 191 203 206 271 230 247 233 230
229 229 234 206 226 215 222 215 212 197 207 212 213 208 207 201 211 217 202 214 196 205 203 191 204 219 218 207 199 202 181 169 197 189 186 177 197 196 190 192 205 218 227 239 219 238 226
219 230 245 233 213 240 228 227 216 211 214 192 195 210 206 204 202 202 206 153 216 204 196 210 199 204 220 207 201 196 162 184 189 193 186 184 196 176 157 190 182 213 218 250 217 227 232
259 263 262 263 247 246 243 242 245 248 235 249 211 215 219 231 213 220 219 208 216 211 196 220 192 201 222 206 189 204 191 182 194 194 194 198 202 190 178 199 183 213 216 268 225 222 237
272 273 274 280 287 289 288 281 274 256 238 228 237 223 234 196 204 207 203 203 210 195 188 201 189 188 223 209 200 197 183 195 195 178 181 196 188 182 178 198 202 176 209 241 245 214 221
339 342 343 341 353 352 362 318 318 288 278 280 275 252 238 227 229 223 230 231 218 233 187 218 230 225 216 214 204 201 190 193 192 193 187 188 200 177 173 175 190 204 206 221 259 225 224
301 300 302 307 309 318 323 332 336 354 325 271 287 279 271 256 252 244 242 240 245 233 218 226 202 224 216 215 202 167 196 188 192 198 188 193 199 197 194 178 183 189 177 216 222 245 232
287 294 297 303 305 311 307 312 305 298 314 336 346 391 317 283 272 258 269 248 232 240 220 228 206 223 217 216 202 195 171 187 174 193 190 189 174 199 159 183 202 203 179 183 214 270 240
298 304 283 297 294 290 304 307 316 298 298 305 308 337 423 320 303 291 277 257 239 249 224 230 225 223 219 219 205 197 194 190 195 193 193 184 196 197 174 191 202 183 200 213 196 227 255
293 291 295 299 315 309 290 313 311 301 298 304 302 304 305 408 344 327 129 260 263 252 236 226 219 226 219 219 205 197 192 194 186 192 195 195 194 201 182 177 182 176 182 205 218 217 230
303 306 298 347 426 417 312 306 316 310 286 305 304 302 312 322 385 367 335 179 268 244 236 230 184 229 220 161 211 200 195 195 196 196 189 194 182 195 178 208 177 194 189 193 209 233 221
424 402 393 397 393 419 436 382 327 338 309 291 311 321 274 243 307 389 369 303 267 250 235 228 227 226 218 212 213 204 198 196 198 196 181 195 194 196 203 182 194 179 208 195 206 226 174
383 393 400 446 458 402 433 389 385 378 354 301 321 317 294 290 346 377 359 353 143 250 237 227 225 225 220 217 212 210 204 196 201 181 187 198 197 196 191 179 177 201 193 204 205 207 222
406 424 454 468 386 400 408 402 377 422 385 378 343 320 298 149 179 384 349 336 199 171 235 230 227 230 219 214 210 211 208 197 197 197 196 189 193 200 195 181 201 176 204 212 203 215 221
475 455 468 412 380 408 393 390 423 396 369 388 326 307 217 90 289 111 108 214 192 242 232 233 231 226 219 214 212 209 205 201 201 203 187 196 193 193 193 182 181 187 214 203 209 210 220
453 458 481 388 373 382 376 370 410 368 364 354 307 292 290 304 308 239 352 335 140 205 234 231 231 222 222 214 213 211 208 207 207 203 196 185 181 201 203 196 178 177 207 194 209 204 198
464 497 452 383 368 369 371 372 386 358 350 312 293 291 296 312 277 525 365 326 289 116 235 233 232 226 224 217 213 210 207 216 212 210 180 207 204 195 183 188 185 202 193 225 206 213 215
446 481 437 382 380 369 369 419 369 339 184 283 288 294 296 304 328 490 225 170 277 250 236 235 236 219 188 225 216 213 211 216 216 214 206 189 195 198 201 207 181 182 180 194 175 217 202
410 450 418 380 380 364 419 379 335 323 310 292 298 296 300 310 89 82 352 318 269 244 238 128 241 231 233 222 217 207 216 216 201 214 206 212 206 197 187 198 176 194 207 188 223 205 211
395 397 385 382 382 425 365 331 322 307 299 297 289 290 305 316 484 474 355 317 268 247 243 234 234 230 232 221 167 216 214 215 214 202 205 204 206 207 188 182 194 200 205 214 222 205 207

GFSGBSN_2pvu_pres_060.txt.gz
Presure
188 217 219 197 186 194 195 186 181 202 169 196 197 192 189 206 181 184 194 182 181 205 173 160 199 194 195 185 195 191 197 162 186 197 200 191 190 196 183 205 196 204 198 193 211 267 268
220 206 203 201 196 183 189 204 207 178 190 196 166 178 190 194 195 191 182 179 197 181 182 198 178 127 189 186 165 187 171 222 157 180 194 190 217 210 204 182 187 201 201 206 212 267 264
213 213 171 190 142 158 194 191 194 204 192 194 191 193 188 183 205 208 183 209 216 188 193 177 183 157 199 203 181 133 176 154 209 172 182 168 218 201 201 210 202 201 199 204 219 282 260
215 202 199 207 193 204 202 194 199 202 190 195 192 190 189 169 196 203 184 163 195 168 189 192 181 201 161 188 185 181 177 172 198 203 192 238 225 191 204 207 206 201 196 197 204 253 271
214 201 205 196 213 171 208 194 189 200 191 196 203 182 191 164 176 208 196 202 158 185 184 190 172 168 165 161 181 191 184 171 195 162 169 209 222 205 209 205 196 178 198 190 218 250 267
216 207 208 196 206 201 201 203 206 195 192 190 190 198 186 185 181 195 203 201 179 163 181 179 183 191 188 185 184 165 174 174 201 185 161 211 158 208 179 195 193 190 201 193 195 233 244
213 217 153 207 210 196 191 185 204 205 183 191 182 184 192 178 192 185 198 198 196 160 179 160 186 157 181 158 196 188 170 187 195 189 194 198 216 208 202 192 190 191 202 190 186 198 249
213 212 216 207 203 194 204 190 192 198 186 193 202 184 182 192 192 186 167 192 192 189 170 178 176 174 190 182 163 168 180 156 176 189 198 189 222 211 195 193 193 199 199 196 191 198 265
233 207 210 210 206 208 211 206 208 193 202 190 194 187 171 191 193 189 187 198 174 182 194 192 170 150 151 170 167 182 162 182 192 174 182 198 220 212 197 187 193 194 182 186 195 189 247
223 220 227 217 213 219 211 206 214 214 191 202 185 185 188 189 197 200 191 222 165 205 181 137 174 164 189 179 165 175 174 187 185 176 184 195 189 213 182 181 186 179 203 185 187 194 195
234 227 233 231 241 232 225 226 216 206 213 210 205 201 196 208 201 200 227 222 194 212 193 193 161 180 182 147 167 142 188 151 183 176 194 196 182 212 206 185 189 190 197 187 187 190 201
247 252 253 239 248 245 242 247 225 213 217 216 216 199 205 195 208 202 207 200 211 195 193 182 189 168 176 171 186 177 170 186 183 194 196 200 201 217 202 181 190 195 188 177 191 178 193
262 248 245 252 243 239 246 248 250 236 231 235 240 222 220 234 213 211 205 211 194 173 192 185 188 180 179 179 174 178 185 181 177 185 193 226 194 217 198 197 193 186 188 184 191 192 188
268 255 264 273 254 265 262 246 235 244 243 250 234 231 237 239 229 234 223 213 225 209 201 179 202 179 189 176 187 171 181 186 172 192 197 227 198 212 202 188 196 192 195 191 191 174 202
277 275 283 284 290 291 261 260 249 259 264 266 254 239 239 235 239 222 234 233 232 144 212 212 213 209 199 195 196 149 199 189 197 209 201 205 194 206 208 194 183 184 195 191 177 174 180
288 292 288 283 282 277 274 272 272 288 289 262 256 261 266 253 235 230 240 244 113 200 222 222 214 219 206 210 209 207 209 188 195 192 195 202 188 212 205 202 196 181 180 194 191 171 175
315 318 330 324 333 331 325 333 360 288 267 270 278 291 274 250 257 269 264 250 123 136 180 149 231 224 233 210 207 211 206 207 208 217 186 197 195 196 191 202 185 192 178 190 197 190 190
342 337 334 331 329 283 327 282 278 311 308 317 335 348 291 269 279 287 255 259 257 244 230 243 240 229 225 221 221 202 207 209 191 213 192 206 192 214 216 211 199 178 181 183 187 196 169
307 300 297 293 292 290 291 290 293 295 294 292 309 309 307 319 335 84 141 298 289 256 251 254 246 233 222 221 212 204 196 202 196 209 218 191 194 223 213 191 205 170 186 185 192 192 196
284 280 280 280 279 277 277 277 277 278 280 277 291 299 296 304 316 314 307 202 191 217 97 196 269 182 242 239 222 222 211 215 215 205 209 201 224 196 212 203 201 200 184 189 192 190 184
268 269 268 270 269 267 266 268 270 275 280 271 295 307 295 288 308 147 300 294 152 309 317 349 342 177 182 168 240 232 236 234 227 209 201 196 219 232 211 205 189 185 184 194 182 195 184
279 282 281 285 289 288 290 291 293 293 280 289 301 313 295 279 87 292 94 97 305 92 125 305 196 327 106 268 252 245 243 225 238 225 213 212 214 215 205 199 185 184 188 184 189 193 186
280 281 288 293 293 284 281 281 283 281 297 294 300 303 317 310 90 91 304 302 283 122 310 303 252 286 386 316 269 252 229 223 217 214 212 213 216 210 204 204 177 194 186 188 186 196 184
291 296 294 282 277 294 302 295 294 294 281 294 319 305 309 329 305 315 129 181 264 241 297 303 284 261 413 313 285 257 245 236 228 228 212 229 225 222 209 197 203 184 190 190 188 192 193
285 305 331 361 447 284 295 433 430 422 408 343 328 385 396 412 398 104 231 96 274 260 295 298 288 296 387 323 305 262 252 248 238 235 237 238 225 228 207 206 207 195 198 186 192 192 194
403 400 396 389 383 381 376 370 365 362 364 116 346 375 289 364 381 109 102 118 155 115 110 288 296 277 335 320 303 269 263 256 256 259 235 234 225 218 220 204 211 198 191 188 187 184 197
413 426 432 424 414 409 409 406 412 431 378 353 362 361 368 369 359 364 371 101 301 180 285 290 282 221 317 336 298 277 255 250 261 245 231 230 229 219 223 207 190 213 196 180 187 184 179
410 413 411 418 426 411 408 402 410 421 366 351 344 348 242 364 364 301 283 348 350 227 289 297 279 284 240 356 295 280 265 272 269 246 173 231 230 221 222 205 213 194 217 196 195 192 127
476 463 482 422 392 398 408 415 384 394 355 353 345 339 353 354 347 323 318 344 294 303 297 300 291 286 331 340 293 290 278 262 255 251 239 236 181 221 216 213 212 208 214 203 206 199 191

GFSGBSN_2pvu_pres_066.txt.gz
Presure
159 196 201 178 227 185 198 177 200 192 158 177 176 172 198 198 178 200 178 204 186 185 195 192 200 184 194 197 189 196 209 180 196 189 200 203 204 198 193 199 176 199 182 212 214 196 207
217 185 212 216 239 168 240 199 195 221 192 215 185 191 215 197 207 170 179 198 203 184 204 195 192 185 182 158 190 197 191 193 199 192 198 170 189 211 187 199 198 194 203 231 209 202 208
228 280 226 174 282 263 222 186 239 191 235 257 188 193 184 181 203 212 178 194 221 190 187 180 192 191 184 197 190 197 174 165 183 172 183 181 178 177 180 181 179 206 167 220 206 166 195
262 271 273 238 198 264 252 236 240 183 243 265 245 218 181 223 231 208 197 207 199 187 196 182 198 187 181 190 162 190 194 191 194 190 188 166 178 197 191 204 185 190 194 204 234 198 182
269 274 264 262 247 239 216 229 236 241 216 230 219 207 228 216 216 216 208 203 192 175 182 188 204 196 191 184 192 186 196 191 190 184 188 187 163 190 191 202 199 193 172 177 221 180 198
256 253 266 255 258 250 248 230 228 236 219 211 220 197 219 223 220 203 207 202 193 204 198 196 191 200 181 193 193 184 160 198 189 187 181 181 187 182 161 190 191 191 193 197 203 199 195
262 265 263 258 267 273 241 239 230 218 215 216 221 208 211 210 207 207 208 214 202 190 202 206 191 194 190 193 191 190 183 186 195 191 207 193 187 181 193 186 160 176 206 187 192 218 194
255 269 257 252 245 268 251 240 229 216 219 212 209 215 208 202 205 205 202 194 199 209 206 200 190 191 188 189 202 189 183 176 198 192 197 170 177 171 181 169 188 179 206 179 181 206 193
264 255 257 251 249 260 250 232 231 227 216 224 211 203 203 210 200 201 206 205 211 186 203 207 192 204 191 190 186 193 198 188 198 187 188 184 164 149 149 175 185 196 192 203 193 203 220
260 265 264 269 240 246 243 238 233 226 228 218 212 211 221 207 207 201 200 194 200 199 198 189 196 192 192 191 171 182 189 198 195 194 194 188 164 195 156 159 196 200 193 199 202 197 215
253 259 245 261 266 250 235 245 239 231 228 215 216 219 216 212 208 217 212 196 204 210 199 193 186 191 187 191 171 183 183 181 190 169 199 157 184 188 197 189 141 156 184 196 191 195 201
255 251 241 246 258 262 248 233 242 233 224 225 226 219 218 215 218 216 203 207 205 189 195 186 191 177 140 177 185 188 184 191 191 172 181 187 191 179 180 180 171 187 200 181 195 196 190
255 249 253 251 242 245 256 254 236 247 239 234 220 226 209 223 212 215 205 202 207 206 190 187 194 188 197 189 189 189 187 184 186 192 196 161 152 203 178 189 199 196 177 202 178 183 201
284 265 265 269 270 267 262 257 264 236 251 230 235 233 224 217 227 207 220 209 207 86 109 199 187 159 191 196 188 187 187 190 193 189 183 195 187 202 153 179 186 193 187 181 210 187 213
286 280 283 277 257 257 269 265 262 273 261 241 248 229 228 235 227 226 221 217 212 203 200 199 208 206 199 191 202 198 191 192 197 204 192 201 212 199 205 196 195 190 178 183 198 198 189
286 285 280 277 280 293 277 267 270 273 268 274 256 250 236 234 247 248 192 228 180 91 171 209 170 218 207 202 198 206 204 202 197 199 200 200 191 202 186 190 193 168 193 196 202 184 202
297 282 264 273 278 275 280 285 294 291 279 277 281 272 258 262 265 245 250 241 235 98 117 89 156 222 220 229 222 222 210 202 201 205 210 204 196 193 197 196 188 188 194 191 193 191 199
442 349 301 293 273 277 279 270 264 271 275 276 283 298 289 313 282 282 279 250 149 263 254 263 241 231 233 225 246 249 227 200 206 198 199 197 199 215 201 198 196 199 193 182 193 201 195
425 414 358 375 295 302 281 286 283 286 289 289 294 295 286 290 254 247 222 270 222 179 268 261 83 258 244 240 245 236 233 229 220 214 217 222 230 195 201 203 195 190 194 194 193 206 221
390 389 394 399 409 407 388 389 385 384 388 359 330 342 351 357 293 237 167 282 262 294 301 273 260 258 247 239 247 242 240 238 224 226 231 221 217 223 206 192 197 199 202 200 219 210 218
372 381 380 376 350 297 347 362 355 348 341 338 352 301 312 242 314 322 344 278 131 126 268 143 273 280 277 252 250 261 237 238 233 230 214 214 222 220 214 206 196 205 208 197 213 216 213
329 328 332 334 335 328 334 314 323 321 313 313 326 326 325 319 315 323 297 319 312 322 323 335 331 269 271 274 281 272 249 244 253 248 235 226 217 215 215 211 209 211 206 207 213 206 219
314 315 310 308 302 302 300 292 295 289 287 297 304 302 300 297 300 295 285 280 290 292 296 296 252 261 137 170 258 259 275 271 241 253 256 239 234 227 225 214 214 217 216 216 211 216 221
293 293 290 289 289 289 288 283 282 283 277 276 287 285 287 286 287 278 276 281 283 281 286 289 294 197 201 123 190 139 259 272 281 256 240 245 248 245 226 224 227 122 221 210 226 221 216
282 282 282 282 280 278 276 275 273 270 271 241 278 275 281 285 278 280 165 271 134 280 129 269 278 273 279 286 290 307 315 332 317 265 276 253 236 252 250 244 230 206 121 215 219 206 200
279 279 281 281 277 275 275 273 272 269 271 271 275 273 277 281 286 264 270 276 100 94 272 112 271 140 107 250 279 291 296 286 328 336 312 258 261 249 245 247 248 227 224 212 208 205 206
250 269 269 268 265 265 266 265 264 266 269 273 94 275 277 274 258 119 212 270 269 247 280 261 279 164 268 191 257 169 287 294 311 317 323 297 279 261 259 250 252 245 225 220 217 212 218
282 282 283 277 277 278 279 278 278 279 280 278 282 206 278 278 268 267 269 264 244 273 278 114 234 149 295 268 313 290 284 289 286 297 328 319 316 284 240 252 260 275 240 220 227 109 211
324 325 322 321 335 342 349 410 409 298 292 292 285 284 276 282 175 294 289 276 278 285 261 267 284 283 293 150 277 306 292 290 279 288 356 321 290 191 261 252 234 241 273 267 139 235 220

GFSGBSN_2pvu_pres_069.txt.gz
Presure
187 142 167 176 203 186 204 215 206 165 209 175 241 194 176 225 169 187 192 184 184 191 186 204 210 193 193 182 195 194 190 197 189 202 202 198 187 191 202 187 190 207 184 201 202 200 219
186 167 184 203 230 190 227 207 206 199 177 188 210 214 183 176 164 205 199 165 206 194 184 186 202 179 203 191 184 192 193 193 200 194 207 186 199 196 191 189 178 200 178 204 185 208 204
208 207 209 203 203 166 185 215 207 226 205 271 206 176 230 163 171 224 196 218 211 202 195 154 161 180 192 200 180 183 188 197 191 197 201 199 164 194 196 185 183 188 204 199 177 198 200
204 217 216 193 198 217 259 207 201 285 275 213 262 254 198 229 160 196 196 224 160 241 195 221 196 193 176 198 189 182 172 193 193 193 192 202 191 190 190 199 170 192 201 180 162 190 190
213 223 220 227 206 230 243 268 280 276 273 269 194 252 211 240 245 210 256 244 239 241 230 215 197 203 193 194 201 186 192 190 196 194 191 181 191 191 195 187 175 196 175 173 171 188 198
218 221 225 252 303 235 213 267 247 264 258 249 231 252 230 236 226 237 239 234 205 202 181 218 202 197 205 189 187 186 189 201 196 193 191 196 168 188 195 189 192 175 198 189 178 167 187
210 221 298 280 240 241 268 267 274 255 262 239 247 240 230 218 227 232 237 232 235 210 242 224 206 200 195 194 193 201 184 198 191 199 189 192 188 202 211 194 183 178 194 179 172 199 186
273 273 266 255 240 277 265 266 260 266 258 254 231 236 225 236 227 216 226 217 219 208 207 206 205 191 196 187 204 195 190 193 190 199 194 187 180 185 194 196 174 162 168 184 192 181 203
284 258 251 237 232 274 279 254 255 271 259 257 241 237 235 237 213 219 204 213 221 211 213 211 203 199 203 204 185 196 207 197 190 181 200 187 187 185 194 197 184 183 187 157 198 194 187
274 271 267 273 267 272 265 253 262 254 259 264 242 235 233 230 221 222 219 217 203 202 216 205 206 198 196 185 202 190 192 195 189 186 193 195 191 190 194 194 196 190 159 207 180 198 157
259 275 273 254 269 263 262 285 264 259 252 244 257 239 233 228 220 223 214 224 207 205 216 205 201 209 211 205 192 199 194 190 198 195 194 194 194 190 189 189 155 196 151 186 193 181 208
261 261 263 259 262 267 258 262 271 260 250 244 235 248 235 226 227 221 212 215 213 204 185 206 190 196 195 205 200 193 191 194 194 191 193 186 187 187 188 182 188 176 176 145 197 154 186
270 272 245 269 270 275 258 257 260 264 268 247 245 256 247 236 222 228 225 230 209 204 196 192 199 197 199 193 202 193 192 191 191 183 189 187 190 191 192 191 191 198 182 183 205 176 204
297 288 281 276 270 269 252 257 245 256 267 270 249 242 239 243 239 227 222 209 221 149 208 106 97 83 203 197 196 191 189 186 188 181 187 188 185 188 180 184 191 196 191 195 188 167 174
279 283 287 291 288 283 297 276 262 250 244 249 249 252 230 251 243 231 228 225 129 213 183 219 211 210 208 195 199 194 195 193 189 191 180 189 191 188 189 193 197 181 193 201 203 193 188
288 292 293 293 282 287 289 290 279 260 258 252 250 268 257 252 248 236 235 223 223 208 218 80 176 202 211 204 199 196 196 195 193 189 193 192 190 194 200 186 194 197 190 194 193 199 203
333 339 342 343 332 301 280 285 292 291 276 270 273 257 263 267 247 195 137 230 225 228 146 230 226 90 99 203 202 199 196 206 200 197 197 195 196 196 203 206 196 192 201 182 184 194 162
328 415 416 419 435 343 321 270 279 282 285 290 286 286 277 265 274 274 100 241 236 83 230 219 88 87 88 217 214 205 204 207 199 198 198 200 200 194 195 197 200 202 198 204 201 194 203
401 391 396 403 414 430 432 356 295 270 278 280 279 286 292 275 277 281 269 275 254 238 114 240 235 242 237 244 222 184 210 207 208 204 202 198 198 195 200 205 205 203 195 193 198 195 197
372 386 387 392 399 414 426 362 351 290 267 259 270 283 284 281 287 291 297 279 246 267 264 249 243 239 170 231 233 239 241 236 236 241 227 217 213 219 233 225 215 196 194 211 194 212 204
386 372 381 387 397 397 400 379 357 352 317 283 281 282 288 246 215 157 85 135 275 281 286 284 272 229 260 257 256 253 245 240 247 236 232 246 236 246 234 222 217 218 207 208 218 207 200
355 362 367 370 374 382 379 355 377 375 314 276 324 300 298 293 285 202 234 296 306 197 90 268 106 276 285 286 272 255 263 267 257 251 248 242 246 229 228 226 224 216 214 223 226 212 213
357 360 365 366 383 378 380 375 370 355 336 338 358 368 374 375 355 356 320 316 321 327 349 291 249 207 267 272 277 283 284 260 246 246 257 254 243 242 234 227 224 222 216 217 211 211 213
323 326 320 327 336 333 333 343 339 332 337 335 343 342 352 338 333 332 328 305 329 200 314 333 337 290 310 190 272 273 271 271 280 280 274 252 243 241 249 236 230 232 164 213 213 216 213
307 308 306 308 312 312 316 311 314 311 312 317 320 317 320 301 307 216 301 298 295 304 309 299 310 304 311 155 126 296 325 289 210 160 260 273 269 259 245 242 152 101 119 226 121 213 217
295 286 292 301 304 303 301 295 298 294 291 139 123 302 292 290 285 288 287 287 280 275 283 269 280 224 287 293 305 119 313 331 333 324 294 235 258 260 267 267 260 241 252 234 225 231 217
271 268 271 280 282 284 279 282 282 281 279 280 282 286 286 278 278 279 244 275 278 278 276 276 107 226 282 230 295 295 297 302 238 316 315 313 294 267 221 256 279 258 229 240 245 189 220
284 279 278 273 270 272 272 275 274 274 274 276 276 169 274 271 234 147 264 267 249 163 243 262 275 249 277 274 279 197 197 282 285 293 298 312 314 222 261 194 245 257 250 246 240 232 241
321 296 285 284 283 279 269 268 264 267 268 267 243 267 80 262 262 265 264 261 263 169 93 103 270 112 142 147 271 260 272 242 156 251 284 272 290 309 299 278 253 249 256 238 246 201 236

GFSGBSN_2pvu_pres_072.txt.gz
Presure
154 186 183 168 190 184 185 175 191 211 152 206 136 206 162 186 194 162 176 220 162 205 199 204 184 201 202 169 212 177 187 200 186 173 188 195 202 207 206 197 199 202 202 201 190 211 201
181 207 192 200 153 154 189 204 188 173 165 222 147 179 190 192 202 175 166 206 214 208 212 180 200 177 179 179 194 188 192 188 192 196 195 203 200 194 208 206 200 200 207 194 184 209 200
187 204 212 201 159 205 165 212 147 191 181 217 233 216 164 151 204 159 201 267 155 211 196 221 204 199 181 190 198 215 175 195 175 189 196 196 203 192 179 201 206 199 194 198 191 206 186
202 202 175 203 200 211 209 148 223 213 237 226 237 202 226 191 169 282 265 266 242 265 240 197 240 215 197 169 208 174 194 181 181 193 169 186 181 193 196 192 197 196 194 197 195 198 190
203 215 210 214 197 198 200 215 198 232 243 195 222 194 222 222 236 271 269 260 266 233 197 217 215 185 198 188 186 193 204 187 186 166 194 183 189 196 196 195 201 182 193 191 189 172 210
204 217 216 217 232 208 210 221 234 221 225 228 219 267 243 284 269 261 266 260 248 242 233 239 242 231 185 217 216 194 180 206 181 191 192 188 191 195 192 198 183 195 203 203 200 171 177
220 220 218 206 202 226 217 224 217 213 216 225 240 231 267 280 269 264 252 247 242 237 234 237 186 249 161 230 187 212 183 194 200 195 190 182 166 194 186 197 193 193 180 192 201 195 174
194 199 215 236 216 257 200 253 213 232 227 277 268 276 267 273 261 257 237 244 236 229 224 234 259 177 232 219 215 214 209 202 202 198 189 194 182 194 195 193 186 191 187 187 202 183 177
221 205 248 230 255 232 234 282 242 258 302 267 273 260 266 277 257 253 237 237 226 220 240 233 222 226 218 201 214 206 208 209 194 197 196 194 189 195 190 198 193 187 185 192 195 164 173
251 247 239 261 226 228 257 263 281 264 283 279 269 263 261 256 248 242 236 229 229 219 221 218 231 215 218 226 220 211 193 202 199 190 201 196 193 191 188 181 193 194 194 191 196 193 198
219 261 230 258 282 272 270 279 274 272 267 274 269 253 259 265 241 257 233 239 231 217 209 209 219 213 201 204 200 197 192 202 199 198 189 190 196 194 196 192 187 182 195 189 184 186 158
263 290 276 269 280 273 274 267 262 267 271 261 279 282 255 248 268 258 235 240 232 216 213 216 216 227 211 203 208 207 198 199 202 189 202 191 191 193 195 190 194 198 186 191 174 156 159
282 281 269 273 274 277 260 256 243 248 263 255 250 263 265 256 240 246 232 245 215 221 223 216 216 218 218 215 214 203 203 195 203 190 196 199 197 194 194 194 182 189 191 200 187 175 187
276 264 262 257 254 260 257 294 302 245 261 258 266 258 276 257 246 244 246 237 233 233 224 221 181 105 205 214 204 201 204 201 196 202 203 201 198 195 193 195 195 195 195 194 181 188 183
266 252 261 306 300 302 301 298 299 301 284 264 256 252 243 275 255 251 241 255 234 235 228 227 208 199 204 198 104 200 216 211 195 187 204 202 193 198 195 191 195 197 199 187 185 191 163
298 291 290 285 278 278 277 277 274 279 290 280 271 273 262 266 272 248 247 241 191 230 234 216 143 210 198 203 204 204 196 200 199 202 198 205 196 189 192 191 194 186 191 192 186 177 187
284 281 281 280 274 282 278 284 272 270 269 280 286 280 256 264 267 263 255 243 253 235 240 226 219 215 218 213 210 207 206 206 195 199 196 196 196 197 194 193 189 195 195 183 185 190 178
289 293 297 322 325 333 343 346 345 334 336 301 280 297 283 261 258 177 261 246 245 253 245 237 229 228 218 98 97 171 96 224 208 203 212 196 200 196 196 191 190 195 193 195 193 192 192
313 317 338 346 344 342 358 369 409 359 342 321 351 283 293 272 272 264 159 265 261 246 83 200 88 121 96 120 220 216 214 213 205 196 202 204 194 199 193 196 197 197 198 192 199 201 195
344 384 380 407 403 390 398 389 391 394 400 374 330 341 287 293 290 273 238 256 94 138 246 243 237 197 230 230 227 223 222 214 186 214 209 204 199 200 199 195 201 195 192 191 196 194 195
374 375 380 383 388 389 361 374 373 384 396 395 368 339 314 281 287 260 275 269 252 242 257 267 248 241 240 241 239 236 234 227 224 224 218 217 209 212 205 206 202 203 197 197 199 201 202
342 348 351 360 376 373 370 373 378 379 389 378 372 192 348 288 269 281 287 277 282 282 274 268 266 261 259 250 242 237 228 244 244 234 227 220 219 223 216 213 211 197 203 211 214 230 229
342 358 372 363 349 362 367 373 382 384 383 386 383 371 341 292 250 253 277 142 272 274 279 279 250 220 268 268 268 263 254 247 239 241 251 239 225 223 224 229 233 231 227 235 227 233 241
312 319 336 351 362 353 355 365 372 376 384 382 363 341 348 344 283 174 271 258 258 262 264 254 96 275 281 289 94 280 266 265 270 267 265 260 256 252 249 206 238 179 174 231 187 233 229
297 298 303 323 332 344 380 353 363 366 376 340 350 376 386 377 366 107 290 281 284 285 274 276 279 274 237 267 267 271 271 273 281 280 280 292 288 273 258 254 260 254 246 235 235 243 226
282 285 296 298 311 311 333 350 362 378 376 369 363 366 358 335 349 342 341 344 341 343 348 338 325 345 347 336 361 335 299 279 278 271 266 260 269 272 284 278 268 242 125 245 251 236 232
278 278 282 289 296 303 307 314 314 321 329 328 332 268 333 328 326 323 320 324 168 171 319 304 291 295 299 329 186 326 334 312 250 240 268 267 267 272 268 266 165 272 264 259 252 155 103
354 277 276 279 288 288 295 297 295 299 312 309 318 319 312 311 277 308 305 306 306 302 293 287 307 314 312 304 292 302 298 304 313 315 323 326 323 210 272 171 266 205 255 270 274 262 239
442 380 302 278 279 270 279 280 290 292 293 303 303 300 298 289 295 291 288 286 284 276 276 95 125 289 287 270 107 292 288 167 291 290 294 299 302 305 320 329 314 287 258 258 259 258 178

GFSGBSN_2pvu_pres_075.txt.gz
Presure
186 179 185 176 184 178 180 207 202 191 187 189 185 189 203 199 174 193 207 202 209 202 200 183 175 201 180 178 185 189 192 168 184 200 208 205 178 198 196 191 191 206 206 193 200 199 192
152 160 179 192 193 184 186 190 195 201 211 205 202 203 172 190 178 188 188 191 223 206 161 202 189 164 195 163 205 181 180 198 182 194 179 199 199 194 193 200 201 205 203 202 205 207 189
188 185 188 169 193 202 190 202 137 193 212 213 191 218 151 211 194 148 189 164 178 216 221 228 219 202 204 160 213 206 210 206 182 179 183 194 194 215 180 197 189 196 197 197 205 202 200
209 196 216 200 184 198 187 179 204 206 197 194 215 222 208 235 199 235 201 204 241 191 235 169 202 199 261 178 244 223 217 183 168 176 194 191 190 191 182 177 197 191 206 187 199 197 192
191 198 212 209 218 207 210 200 207 210 227 168 200 221 150 205 218 192 231 217 224 202 235 238 274 189 256 245 228 204 209 229 183 201 176 192 204 186 181 195 194 197 195 199 201 184 198
206 235 212 232 219 210 211 215 226 227 197 225 228 224 227 240 235 247 217 246 229 296 300 281 275 265 247 239 233 161 226 225 228 219 206 206 199 190 187 182 199 198 194 198 201 189 190
174 199 217 206 249 225 222 196 230 217 226 244 220 207 204 266 206 260 316 307 288 282 279 275 268 242 248 227 222 228 224 206 189 158 189 176 177 191 187 187 196 183 198 189 204 164 187
207 219 190 220 228 229 206 220 232 227 221 221 229 268 220 226 233 306 297 283 273 280 269 260 258 247 241 231 223 223 216 230 216 200 224 197 193 204 194 196 196 189 196 194 192 182 186
223 212 219 227 222 220 236 222 221 244 250 276 268 257 235 245 269 294 287 278 267 280 262 254 255 243 236 237 223 220 232 231 196 212 205 181 196 174 198 194 191 193 190 196 198 192 186
232 224 223 236 230 226 233 250 242 254 241 238 226 245 286 287 288 286 275 279 274 270 261 249 241 233 225 228 224 217 217 221 219 208 210 201 179 192 192 194 192 196 193 188 199 186 192
243 248 243 240 256 232 255 239 227 264 231 288 267 249 279 284 264 284 273 266 270 249 253 244 242 224 222 219 241 235 230 225 221 224 215 194 210 211 201 197 196 189 191 191 180 196 186
259 250 245 256 246 245 248 253 259 267 286 272 275 279 275 269 263 279 269 266 262 258 236 234 221 222 230 228 214 222 218 215 211 200 203 197 208 207 199 188 193 197 196 194 194 180 189
266 253 256 263 287 297 279 285 284 274 272 272 270 276 272 255 274 270 277 266 270 255 233 234 223 217 235 224 219 219 216 218 208 214 207 210 197 200 189 192 191 193 197 193 190 194 177
305 302 305 294 274 283 280 281 272 280 273 261 258 253 255 244 248 280 278 292 266 263 228 226 220 210 219 207 212 211 209 207 213 211 207 202 198 196 195 196 197 200 195 201 206 179 176
270 285 287 288 273 253 253 279 282 270 263 251 254 302 259 253 247 242 282 297 256 255 241 220 224 222 212 213 146 212 203 184 197 198 192 200 199 197 196 188 192 196 201 197 199 194 184
281 273 260 261 274 288 293 300 270 270 298 299 301 300 309 305 296 260 279 278 258 237 250 229 227 227 204 214 176 213 221 207 202 196 199 196 194 197 195 188 197 196 198 198 196 186 184
275 277 273 275 276 273 273 277 278 280 280 281 279 277 270 278 311 287 281 281 263 249 233 251 223 229 210 221 223 210 209 219 208 202 199 196 202 199 198 199 198 200 187 197 194 198 191
309 291 283 271 275 272 270 267 268 266 266 268 273 277 271 276 277 314 230 275 268 267 240 237 242 230 224 217 211 213 218 219 165 209 202 206 199 195 204 200 190 204 200 195 198 195 186
320 315 315 301 302 302 308 323 324 323 326 324 325 327 332 268 286 274 295 275 261 273 254 244 232 241 234 226 218 215 100 105 223 216 104 200 209 207 215 197 199 191 202 204 202 199 202
348 318 315 310 311 308 308 309 313 327 339 345 349 349 354 235 122 235 287 276 267 258 272 249 242 239 177 238 233 101 220 220 207 218 210 203 175 208 201 201 201 199 193 193 200 195 195
348 351 355 361 355 342 335 392 389 401 397 385 392 410 406 410 339 344 275 284 280 259 263 90 90 241 199 248 244 228 229 225 222 203 218 208 204 205 207 208 204 203 206 200 195 196 194
345 344 369 361 354 352 347 349 357 363 389 386 361 381 386 406 437 342 353 284 282 272 260 266 248 261 248 239 249 243 233 235 223 223 211 216 229 227 212 212 213 195 195 200 201 200 200
345 348 347 350 358 362 367 343 346 362 376 375 196 373 377 402 418 386 338 274 134 282 263 253 262 237 267 256 223 248 252 247 234 221 220 219 218 218 207 207 208 205 207 213 213 212 209
312 313 318 321 324 341 352 349 339 356 366 346 374 366 380 411 404 375 319 309 278 227 89 259 257 251 250 267 271 142 253 233 164 241 241 228 230 225 223 222 225 215 218 221 223 220 214
298 296 297 299 306 315 338 350 354 341 362 378 377 378 393 394 365 312 312 323 248 279 283 278 265 260 256 258 253 255 260 267 268 253 251 249 243 239 238 236 231 231 225 227 219 217 230
294 293 292 298 303 305 312 326 351 371 349 376 386 390 400 363 356 333 311 320 279 258 273 275 284 283 142 281 283 284 292 288 276 273 272 269 263 259 254 248 243 227 231 225 235 222 228
423 279 282 279 286 291 305 314 338 379 366 364 364 387 363 324 343 314 316 327 178 271 258 267 274 279 285 283 281 235 272 275 274 277 281 283 285 279 273 270 264 261 265 264 259 255 253
339 374 355 281 269 283 288 311 317 354 393 376 337 380 113 328 309 325 321 326 215 232 264 268 268 266 264 259 258 262 265 275 279 271 255 259 265 267 269 268 268 154 278 271 275 281 272
322 387 369 413 269 275 283 299 307 325 343 355 360 349 349 333 321 209 322 320 315 318 311 321 278 311 283 276 337 323 336 331 331 328 345 277 231 295 295 296 279 264 106 121 246 260 263

GFSGBSN_2pvu_pres_078.txt.gz
Presure
141 192 193 168 185 176 190 145 191 185 182 170 179 185 178 144 193 193 198 186 188 195 199 188 194 174 191 196 204 184 194 180 182 178 194 196 191 178 181 193 206 205 180 195 189 201 205
178 203 176 204 173 184 195 134 187 179 177 175 194 194 185 189 198 197 194 199 212 188 225 200 174 210 187 166 200 216 182 181 213 193 186 193 200 188 188 195 184 198 199 188 200 199 207
167 202 186 177 234 199 192 157 185 174 180 193 201 193 185 192 194 204 139 220 205 222 216 231 217 182 231 225 205 158 161 218 189 213 182 202 191 194 173 186 189 198 193 196 198 183 185
211 200 182 198 222 207 204 195 196 198 195 187 180 198 202 195 216 206 210 205 214 215 157 209 153 220 168 219 246 168 232 212 230 205 197 198 219 202 191 178 181 196 180 194 175 194 198
179 198 194 201 191 214 214 203 207 211 208 212 209 211 206 219 212 214 211 144 233 214 170 238 192 245 172 200 184 245 230 206 190 190 255 252 227 194 179 179 176 189 190 195 178 179 197
204 216 196 216 190 207 207 217 213 198 199 210 207 199 186 233 216 218 191 234 210 217 218 173 276 222 218 233 227 212 218 200 213 204 256 240 226 191 179 183 174 191 195 171 184 195 195
223 208 217 215 195 229 227 205 208 224 218 180 194 224 217 238 197 241 250 250 240 183 338 311 221 225 310 299 300 308 298 291 210 242 242 205 199 218 200 219 192 201 190 187 186 188 195
226 216 225 217 224 225 212 199 218 208 227 226 207 210 205 190 209 202 239 226 253 301 237 247 296 287 287 284 274 261 257 261 246 238 228 226 225 196 191 186 199 199 190 186 186 199 197
249 243 234 228 224 206 212 244 200 208 229 187 237 216 210 235 223 221 206 277 321 276 297 278 281 281 282 274 263 255 242 250 235 226 236 224 221 216 207 204 191 180 180 193 196 197 188
238 243 245 240 229 223 228 218 205 215 228 225 235 237 242 242 264 279 244 292 317 291 296 262 275 268 269 267 250 255 224 240 232 225 232 222 199 210 187 191 204 202 195 192 193 196 189
241 240 235 233 241 237 229 227 239 227 216 234 242 245 247 251 254 278 309 303 300 287 288 262 261 269 268 254 243 237 232 222 220 221 223 213 207 213 194 198 207 188 212 176 188 191 186
269 260 259 252 241 235 234 230 236 236 248 247 268 248 254 259 260 310 293 291 297 287 271 260 265 257 260 249 242 237 227 233 220 224 219 205 221 213 201 207 197 191 193 186 186 194 182
314 319 295 255 253 265 249 248 247 241 235 245 252 248 253 302 285 299 279 290 292 287 259 258 261 248 253 246 245 237 226 227 225 221 222 227 224 204 207 199 193 203 199 187 197 195 187
278 262 291 303 309 308 290 280 270 261 255 299 280 303 296 281 287 278 272 277 292 280 265 252 249 242 238 245 237 228 224 222 209 224 228 225 222 212 200 204 197 188 205 213 192 192 190
307 294 301 274 266 272 291 296 277 288 298 296 277 255 268 269 262 265 265 256 283 269 266 257 239 238 237 243 235 225 216 213 224 207 227 212 209 218 216 216 210 200 204 207 191 195 190
343 310 279 275 299 244 260 258 275 257 279 279 289 290 246 254 282 280 252 250 239 243 276 257 249 238 231 230 226 219 168 212 218 215 215 213 207 205 199 205 195 205 204 199 192 194 196
411 341 328 311 268 281 287 266 289 282 250 248 253 289 283 299 290 295 322 316 283 252 284 263 256 235 226 227 221 222 224 227 219 212 207 213 213 214 204 212 198 204 196 192 195 191 193
394 401 345 328 311 293 273 281 268 276 280 284 283 280 273 279 295 299 299 308 316 278 269 282 256 241 228 227 224 214 91 215 211 218 216 214 208 211 211 205 208 204 202 200 201 186 193
365 376 390 356 323 311 302 289 287 285 275 278 269 262 262 132 283 281 282 228 285 301 272 280 259 260 235 225 230 218 217 218 206 203 211 195 194 206 200 203 200 195 199 193 194 199 186
458 354 365 376 361 321 310 309 310 307 303 296 296 302 304 310 204 229 266 276 265 285 291 266 262 251 240 232 219 224 217 210 215 204 211 201 203 201 200 196 199 200 198 202 201 200 201
420 385 337 348 356 365 343 316 314 319 318 321 323 314 309 320 131 311 322 316 271 257 301 278 278 253 256 233 229 219 227 218 204 218 204 200 219 210 203 202 205 201 195 194 194 192 204
348 340 337 335 336 344 347 358 359 323 324 330 340 349 347 334 337 340 350 356 331 271 286 293 269 259 88 93 243 222 224 233 98 213 211 215 204 222 216 208 210 209 205 208 200 213 214
339 336 336 337 340 343 345 347 351 332 361 374 365 358 366 381 403 391 404 410 325 314 273 298 280 244 145 245 243 202 224 216 223 215 223 219 214 208 223 222 217 213 206 205 211 196 198
315 318 321 329 338 341 342 353 354 373 380 376 333 357 373 211 377 356 380 380 392 340 175 271 290 282 280 251 249 247 250 233 224 220 221 220 224 220 216 217 222 204 211 206 206 208 209
294 297 304 309 313 314 319 321 330 352 363 364 345 357 365 355 358 360 362 369 385 351 328 126 287 286 272 279 251 247 248 226 110 248 229 226 223 222 225 229 221 210 217 217 207 205 207
324 288 289 290 293 303 305 307 318 336 339 351 359 346 358 358 366 356 368 378 361 361 318 271 93 285 289 274 269 268 260 250 248 246 243 250 249 238 229 235 229 222 231 213 205 222 224
293 295 304 329 282 293 294 299 315 314 328 352 355 349 370 370 360 385 372 353 252 345 312 308 196 280 175 291 200 261 272 266 258 248 252 249 245 246 246 238 236 244 233 226 223 218 222
291 297 300 314 311 389 288 293 302 311 319 360 344 360 380 382 373 356 347 329 326 314 305 304 305 276 285 286 288 267 257 256 259 263 264 266 265 257 244 244 245 244 248 247 242 240 238
302 302 298 409 383 376 269 276 281 307 321 365 363 364 393 363 355 335 328 316 312 210 299 126 317 280 273 281 288 288 272 259 258 256 257 252 253 254 256 264 272 277 276 206 215 264 255

GFSGBSN_2pvu_pres_081.txt.gz
Presure
207 208 228 189 182 186 158 180 189 189 183 186 187 191 169 192 154 154 182 184 187 192 186 191 180 188 196 195 194 198 181 208 186 181 188 190 198 205 144 209 178 194 191 170 185 184 207
192 206 191 223 197 155 184 172 193 172 169 178 190 194 171 195 183 173 170 184 191 190 186 180 192 193 203 211 203 216 177 221 210 185 214 210 177 206 216 197 193 193 187 191 187 188 189
212 219 236 132 204 209 155 193 170 134 185 193 137 200 177 182 200 192 190 191 186 166 194 193 191 169 215 215 220 227 224 236 203 183 212 199 218 190 181 198 189 197 203 184 178 191 186
245 235 234 208 209 204 185 164 222 188 207 217 176 210 177 199 170 195 197 200 152 189 183 192 207 208 142 232 228 217 232 207 177 221 212 212 167 202 228 183 182 208 200 199 185 185 186
231 230 238 194 213 210 220 215 216 171 171 188 194 175 197 212 203 202 194 199 203 197 191 201 201 207 224 223 210 208 245 177 230 199 175 231 243 207 193 223 197 194 230 200 195 184 186
239 238 224 214 210 216 226 220 222 213 206 208 195 204 186 212 200 190 216 169 210 212 217 211 222 213 205 247 206 183 265 213 174 240 208 235 226 173 167 223 176 230 211 206 196 173 185
251 231 229 218 234 237 235 226 219 217 170 205 202 215 182 197 217 206 174 203 211 193 199 200 243 240 255 276 257 220 328 230 289 170 224 271 279 230 230 203 230 83 211 198 185 161 166
239 240 239 246 227 236 246 242 229 222 224 213 202 200 205 221 209 229 196 206 227 196 178 225 199 218 183 235 350 315 247 211 209 301 227 218 242 221 208 198 206 217 207 196 194 192 178
250 254 255 253 256 243 227 253 241 229 226 203 210 216 211 211 228 217 212 196 202 216 229 211 257 242 244 275 231 305 291 286 301 293 252 269 211 225 206 214 225 209 208 203 202 195 186
279 268 257 253 248 247 233 244 246 237 248 228 220 214 219 218 224 229 211 209 224 194 186 185 248 257 329 199 197 256 281 280 253 254 251 271 263 240 240 234 220 201 218 210 194 192 190
291 269 268 278 259 251 253 252 243 243 238 228 227 219 226 230 227 217 235 193 253 236 236 290 270 306 300 284 282 275 260 258 249 257 255 256 246 231 230 216 212 210 215 199 198 201 176
310 324 303 298 281 271 257 252 252 244 239 243 235 236 231 234 238 256 241 242 233 253 255 246 311 289 289 277 269 267 258 249 253 228 229 239 229 226 229 228 210 211 217 212 196 175 208
370 299 303 303 312 283 269 269 273 255 249 244 242 239 240 242 244 238 241 239 248 237 257 319 295 279 280 269 261 264 251 239 246 230 226 232 217 215 226 218 208 209 206 198 188 180 198
424 419 350 305 288 284 313 290 289 260 273 260 261 268 272 250 243 247 250 260 239 260 316 304 280 280 273 261 264 264 246 244 243 226 218 228 227 215 224 217 206 208 206 202 191 203 198
391 410 426 369 333 299 284 275 309 300 289 308 311 295 291 245 247 258 268 269 270 312 293 279 278 277 264 254 254 258 246 234 238 227 217 219 215 211 219 214 208 195 199 198 195 200 192
431 375 397 415 416 338 318 298 276 274 259 253 272 300 306 284 293 298 299 306 292 282 282 256 277 270 258 256 252 241 240 237 225 226 223 219 233 211 206 219 223 211 205 199 197 194 199
426 443 375 392 409 411 342 308 281 278 280 293 271 259 264 294 290 270 290 264 260 263 255 251 267 262 263 253 252 243 244 238 230 224 227 207 228 221 205 223 223 214 203 198 197 187 200
426 445 461 402 392 402 398 335 301 299 279 278 296 287 265 256 262 264 284 285 287 239 290 254 246 258 271 248 247 238 241 231 228 222 225 214 206 204 205 215 220 213 213 197 205 204 199
425 444 452 478 373 391 399 354 327 312 296 279 269 289 278 263 292 271 237 242 287 291 280 269 241 254 262 254 165 244 238 238 231 217 214 218 216 201 212 205 211 212 206 206 203 205 205
413 433 447 467 428 374 385 392 339 321 315 306 294 263 269 271 265 274 277 285 284 282 296 303 309 253 245 275 248 236 237 240 226 225 210 214 222 203 208 212 209 205 213 204 195 194 197
368 411 439 448 435 353 367 374 372 324 321 313 307 294 277 282 284 270 261 266 266 192 272 284 299 311 253 282 252 242 237 232 225 218 205 204 203 222 210 212 211 210 205 217 206 210 207
329 343 372 394 334 338 346 356 365 378 332 322 309 301 294 295 290 184 278 270 269 259 265 276 282 294 307 265 264 244 237 231 232 221 215 216 214 211 212 212 216 210 199 112 208 203 202
322 334 331 328 331 329 328 329 338 347 363 371 360 314 307 309 308 313 263 311 317 314 317 274 284 280 303 252 286 253 241 233 227 226 218 226 222 217 207 205 206 202 198 190 201 202 197
295 307 313 323 332 337 334 333 336 337 340 340 343 347 359 365 338 319 262 365 348 344 318 318 273 283 285 315 287 264 243 237 230 223 216 217 212 213 211 204 208 202 205 196 196 197 203
284 289 291 295 303 310 319 333 344 348 350 346 360 361 357 348 350 348 345 345 298 387 381 391 371 295 288 304 256 280 249 239 236 229 226 204 221 216 209 209 204 206 200 207 206 205 207
309 310 312 293 286 288 290 303 317 316 316 333 340 346 345 337 340 334 342 354 378 369 367 382 183 385 275 285 317 276 262 216 164 234 227 223 219 221 216 207 227 216 210 214 208 225 219
290 289 289 292 293 293 306 362 290 302 299 316 320 327 343 339 328 346 355 354 350 348 357 391 376 383 270 280 308 283 272 261 242 234 232 230 222 227 225 220 213 209 210 216 221 213 207
285 284 283 285 291 294 296 302 342 293 300 296 310 320 341 342 338 350 346 352 342 359 339 359 357 264 343 176 282 305 279 260 257 248 236 232 232 226 221 224 227 228 185 222 221 221 146
276 275 296 298 301 295 308 302 325 293 283 297 306 319 354 335 345 358 356 356 360 372 348 336 349 341 343 336 269 290 291 268 250 254 257 249 243 236 233 223 227 230 232 230 228 231 229

GFSGBSN_2pvu_pres_084.txt.gz
Presure
208 194 183 193 213 198 191 153 175 168 134 197 149 191 159 182 187 182 163 157 173 179 182 183 189 189 160 190 190 193 193 191 191 185 168 201 219 216 199 220 215 202 186 191 183 152 193
183 188 212 216 211 199 195 204 184 176 195 202 189 194 193 204 183 176 202 206 194 173 153 175 146 193 191 190 189 195 188 193 194 202 195 202 213 206 233 180 180 209 187 173 199 183 178
142 215 181 220 223 191 184 195 195 196 204 199 181 190 188 200 125 186 194 185 192 210 192 192 191 195 176 193 193 197 196 194 194 195 156 215 212 218 220 201 210 164 185 227 183 162 189
222 225 240 240 218 215 205 203 197 204 206 207 220 172 210 187 169 182 195 150 182 181 207 191 202 203 188 198 173 188 189 194 191 217 205 160 204 171 221 228 133 198 194 164 172 233 185
250 251 243 243 232 217 204 205 208 209 209 233 231 229 211 204 195 155 198 146 190 183 165 154 191 201 197 200 187 196 199 203 204 205 213 182 154 258 184 206 222 177 236 173 194 230 199
265 263 263 269 257 231 217 231 225 231 226 221 229 225 219 219 198 199 205 211 197 191 207 178 211 209 203 199 196 202 211 221 160 231 230 194 218 248 258 295 179 241 194 207 183 231 204
242 243 252 252 261 264 244 238 238 242 234 228 236 225 218 216 213 201 186 218 184 200 202 191 215 199 203 224 224 226 228 227 210 218 191 240 238 375 180 225 170 275 232 232 226 230 221
244 241 245 243 250 253 246 246 249 257 241 229 242 225 221 215 214 215 218 213 223 211 199 209 201 207 215 227 221 221 228 171 230 181 260 259 141 214 186 234 220 216 228 208 225 217 221
271 260 258 253 253 245 250 251 250 246 255 243 237 225 222 218 224 223 213 223 211 213 210 203 213 215 211 197 190 244 181 229 210 284 268 291 247 224 234 232 185 219 218 224 215 209 235
291 278 277 279 285 284 282 269 257 252 250 242 249 220 213 208 225 231 226 222 225 205 202 208 208 165 209 220 195 241 234 188 277 324 329 273 298 256 254 259 226 235 221 214 204 231 223
314 312 319 326 334 335 287 290 283 262 269 261 231 259 237 245 232 234 238 235 228 216 203 210 220 219 210 222 233 230 269 183 336 303 300 294 289 276 255 254 219 207 212 207 206 206 221
463 448 400 393 332 305 304 325 327 296 287 277 246 257 241 228 238 235 244 237 246 228 228 229 201 215 218 212 227 223 209 272 265 290 273 275 280 272 255 246 258 216 207 214 219 232 225
426 442 420 412 413 431 368 317 307 309 327 292 274 268 252 252 246 228 231 249 235 235 250 228 221 229 227 239 215 253 273 319 288 275 271 253 251 251 260 256 235 230 224 213 220 227 202
396 419 435 429 393 395 425 426 359 302 302 320 286 267 263 267 248 247 245 250 246 230 242 233 241 222 240 218 255 264 288 294 277 262 248 250 240 239 249 252 231 225 227 219 212 215 217
392 402 404 408 430 387 388 420 416 352 294 302 312 310 283 276 266 261 256 247 244 243 248 250 252 248 256 246 258 265 315 286 264 244 245 238 231 225 239 236 227 223 213 212 212 207 214
381 392 403 415 418 421 386 396 418 393 339 286 283 296 293 279 276 270 266 266 266 260 257 262 260 264 251 258 290 310 293 274 253 251 237 239 227 235 238 225 222 215 216 214 211 209 209
342 373 389 419 420 431 422 368 404 404 350 328 286 279 271 303 301 311 279 284 267 287 290 281 277 272 260 297 291 288 280 265 262 248 235 238 224 222 224 209 212 212 220 209 203 208 200
343 345 379 420 430 438 445 449 382 409 386 346 316 278 276 267 264 317 311 267 298 290 290 278 282 283 293 295 281 276 275 260 256 241 230 239 222 218 216 219 214 214 214 208 204 196 201
323 343 371 418 433 436 458 481 365 396 398 359 327 303 288 279 272 262 259 269 249 254 278 284 281 292 287 274 280 278 271 256 250 239 229 231 224 219 213 205 202 202 212 216 202 203 199
305 323 344 407 433 445 464 486 359 381 396 377 340 310 290 297 270 268 266 282 262 247 287 273 255 251 254 262 262 278 267 252 244 245 227 236 223 219 214 214 232 214 212 207 209 206 204
293 305 333 362 423 449 467 477 356 371 384 394 356 316 303 294 295 279 269 279 288 285 241 272 271 288 290 253 267 273 265 256 242 240 235 234 222 216 213 212 206 221 217 208 215 211 211
281 292 308 337 351 430 342 342 351 368 375 388 367 331 309 296 287 284 266 262 268 274 290 285 273 236 248 288 305 267 283 265 248 243 239 235 213 217 221 224 213 205 207 209 207 213 212
280 297 292 309 333 330 326 327 337 352 363 371 373 342 323 308 300 300 289 281 256 263 263 256 271 281 285 289 309 258 244 272 245 239 236 233 229 221 212 221 204 201 201 202 210 204 204
327 319 288 291 303 312 328 329 323 324 335 219 346 358 351 313 309 307 302 303 120 225 274 284 275 275 284 289 298 251 243 271 249 236 247 231 235 227 221 219 216 205 197 197 200 214 215
312 320 316 312 294 292 298 305 317 347 326 320 326 339 343 349 342 321 275 307 265 284 302 290 303 280 263 265 287 299 312 318 256 245 236 246 230 225 215 210 213 220 201 206 203 200 216
311 299 297 297 300 301 304 304 293 300 326 343 337 331 332 330 335 338 345 355 358 365 374 322 309 318 337 285 271 287 294 256 268 245 238 241 238 234 223 210 207 213 213 220 219 215 197
297 293 287 291 288 287 287 291 293 311 294 305 311 323 344 347 338 344 358 361 348 348 361 348 344 361 386 426 357 149 292 311 287 252 245 236 243 239 221 219 206 213 214 205 203 211 217
287 283 283 283 284 283 282 283 283 291 296 291 293 299 311 313 325 341 340 336 339 331 332 337 352 361 389 391 392 308 281 147 309 262 241 245 234 238 233 223 217 217 148 214 217 209 209
284 282 283 279 276 270 291 292 287 284 295 280 282 289 295 307 316 342 354 333 333 359 348 363 333 202 347 364 378 372 270 274 301 285 251 148 239 230 233 230 222 220 223 212 215 211 119

GFSGBSN_2pvu_pres_087.txt.gz
Presure
211 211 200 192 165 207 183 181 195 187 187 198 204 199 199 114 171 160 146 156 204 191 178 198 202 181 149 179 182 195 184 183 190 190 192 195 189 195 194 201 202 197 181 202 214 187 204
205 216 211 195 185 213 208 187 127 201 207 189 209 212 200 203 195 178 187 186 185 175 188 195 191 193 180 188 192 186 184 187 188 181 190 197 197 201 198 186 191 201 198 197 210 220 217
211 221 206 210 223 218 201 218 209 226 209 190 189 217 200 195 190 205 197 186 193 192 195 191 190 191 191 150 189 176 185 175 189 178 188 179 195 199 198 199 192 184 211 186 191 209 232
228 216 237 224 228 227 221 227 234 229 198 203 203 203 228 210 202 202 201 200 192 173 193 195 196 197 160 182 204 210 153 200 194 201 190 194 189 184 178 196 202 160 211 223 169 248 249
284 299 284 283 279 280 280 243 260 241 238 214 215 219 220 228 205 204 195 202 172 203 206 191 193 194 211 188 194 182 184 175 210 202 192 201 201 210 196 210 192 218 176 208 213 180 222
257 256 262 245 252 261 254 260 258 267 254 245 232 232 232 222 215 205 209 200 208 209 205 216 207 193 178 182 197 175 189 170 182 185 206 204 206 207 197 191 200 205 251 218 255 223 196
250 238 247 242 242 245 249 233 242 252 257 264 250 237 230 229 224 206 214 212 212 221 203 228 243 208 194 195 196 201 199 190 202 213 201 212 213 219 233 165 170 233 206 249 301 209 223
238 248 239 247 245 243 243 255 238 244 243 248 253 249 252 233 220 223 215 216 222 216 230 227 233 223 218 201 202 208 217 193 210 199 206 214 225 221 158 210 278 263 279 332 290 236 252
265 276 279 276 269 288 191 265 264 256 251 249 240 244 256 244 235 229 219 223 234 238 224 229 223 226 221 224 214 203 207 219 214 208 203 184 192 217 232 218 250 190 187 262 278 231 226
294 279 275 339 328 290 323 195 296 285 292 295 258 229 249 251 254 249 254 238 239 248 227 239 228 222 219 218 215 213 224 218 219 210 215 220 229 159 200 334 220 362 300 243 273 224 246
306 308 453 443 447 453 472 470 295 210 327 339 297 267 255 235 243 237 247 251 248 236 241 239 239 227 214 216 221 220 214 228 218 226 206 215 228 245 246 291 329 317 284 283 233 268 226
442 406 392 391 394 416 449 438 444 428 358 314 322 289 290 272 254 244 247 233 250 235 239 239 231 224 219 218 215 235 226 224 234 217 219 227 223 238 323 291 246 238 276 224 221 218 219
390 396 363 365 368 423 424 444 424 416 406 349 301 311 328 271 275 278 273 262 228 246 251 248 232 232 213 225 230 230 234 240 232 231 232 234 235 310 296 300 290 275 254 212 261 239 228
356 353 357 360 362 388 410 429 435 418 403 414 368 327 305 311 316 290 277 260 252 240 240 256 238 223 227 237 231 244 239 242 247 242 248 200 235 292 266 282 277 260 261 247 251 218 200
333 333 336 340 360 358 387 422 425 426 395 395 422 356 324 288 291 313 290 275 269 258 250 240 248 231 227 228 243 226 248 237 236 237 227 243 299 292 272 277 250 251 254 247 235 236 230
318 314 317 322 334 352 385 427 424 415 415 380 412 359 314 322 286 301 312 283 269 261 260 255 242 247 248 245 240 250 244 257 256 270 259 303 290 281 256 253 251 247 234 247 234 224 222
310 304 304 310 321 342 396 435 426 423 420 374 409 386 343 334 291 289 293 295 277 268 258 254 257 253 249 248 247 247 248 239 261 274 319 295 268 262 248 244 232 243 241 244 226 222 222
303 295 296 306 312 332 419 446 438 433 426 383 395 384 352 325 324 287 281 290 287 275 267 257 262 260 259 260 263 257 262 300 295 314 285 271 255 258 244 233 230 236 241 234 231 226 218
293 294 286 295 319 327 427 443 438 446 435 389 388 374 345 337 323 285 271 276 280 290 286 276 268 264 271 272 288 288 288 296 292 303 273 266 247 251 234 224 224 233 224 226 221 212 214
293 281 281 283 324 323 377 464 454 449 455 381 377 372 352 338 320 309 273 264 273 288 297 295 289 283 300 293 293 285 289 292 296 290 265 257 244 244 223 226 226 234 218 212 213 211 212
293 284 283 282 325 313 340 383 478 484 497 352 381 380 304 337 325 308 289 265 261 261 260 300 292 280 249 251 263 289 287 303 284 284 259 257 243 230 226 223 225 224 218 209 214 204 210
293 284 281 275 323 300 335 340 348 349 347 355 375 261 364 337 324 301 298 272 266 265 265 262 259 270 270 254 281 276 294 285 277 281 256 248 248 228 223 222 224 225 211 205 206 204 199
291 281 276 269 316 288 310 330 329 351 354 350 355 366 367 343 317 313 296 289 286 270 270 265 264 276 276 252 255 254 259 259 267 280 254 244 248 233 222 224 217 212 216 205 208 212 214
289 281 289 317 313 310 294 302 324 320 341 345 355 368 372 355 323 310 303 290 290 278 288 269 269 268 292 288 238 282 293 307 283 265 255 245 252 238 239 223 218 217 215 221 217 209 206
287 275 320 303 298 304 309 288 299 307 325 326 345 351 356 360 338 319 307 305 299 84 124 293 271 264 264 283 278 306 238 271 266 252 263 246 247 238 229 231 221 223 216 222 206 209 230
283 271 290 299 295 290 292 291 300 300 303 322 327 315 334 345 345 347 332 314 307 302 294 288 284 275 261 261 284 267 276 288 268 307 309 250 247 248 228 227 226 221 214 210 207 222 219
281 270 286 295 286 287 284 283 285 285 294 309 313 343 321 316 331 337 342 338 334 311 306 313 303 292 296 287 287 273 285 284 288 293 246 259 250 242 242 229 230 228 221 214 223 220 211
277 271 321 293 281 280 281 277 274 276 282 284 311 305 310 335 340 340 335 337 347 360 356 363 350 349 329 306 312 315 301 271 272 280 256 239 252 247 234 235 225 223 232 215 217 213 209
277 268 324 298 282 280 280 271 268 278 274 284 276 304 299 303 319 327 325 332 339 345 344 359 343 343 345 351 364 394 409 377 259 266 286 241 262 246 244 238 227 234 228 228 222 221 227